Weather History for PAGK - December, 2012

Change the Weather History Date:

Wednesday, December 26, 2012

  Actual Average Record
Temperature  
Mean Temperature -9 °F -  
Max Temperature -2 °F 9 °F 37 °F (1999)
Min Temperature -16 °F -8 °F -43 °F (1949)
Degree Days  
Heating Degree Days 74    
Moisture  
Dew Point -13 °F    
Average Humidity 78    
Maximum Humidity 83    
Minimum Humidity 66    
Precipitation  
Precipitation 0.00 in - - ()
Snow  
Snow 0.00 in - - ()
Snow Depth 10.00 in    
Sea Level Pressure  
Sea Level Pressure 29.83 in    
Wind  
Wind Speed 0 mph (NW)    
Max Wind Speed 4 mph    
Max Gust Speed -    
Visibility 10 miles    
Events      
Averages and records for this station are not official NWS values.
T = Trace of Precipitation, MM = Missing Value Source: NWS Daily Summary

Daily Weather History Graph

Daily Weather History Graph

Search for Another Location

Airport or City:

Trip Planner

Search our weather history database for the weather conditions in past years. The results will help you decide how hot, cold, wet, or windy it might be!

Date:

Astronomy

Dec. 26, 2012 Rise Set
Actual Time 10:08 AM AKST 3:17 PM AKST
Civil Twilight 9:02 AM AKST 4:23 PM AKST
Nautical Twilight 8:00 AM AKST 5:25 PM AKST
Astronomical Twilight 7:04 AM AKST 6:21 PM AKST
Moon 2:30 PM AKST (12/26) 8:27 AM AKST (12/26)
Length of Visible Light 7h 20m
Length of Day
5h 08m
Waxing Gibbous, 98% of the Moon is Illuminated
Dec 26
Waxing Gibbous
Dec 28
Full
Jan 4
Last Quarter
Jan 11
New
Jan 18
First Quarter

Hourly Weather History & Observations

Time (AKST) Temp. Windchill Dew Point Humidity Pressure Visibility Wind Dir Wind Speed Gust Speed Precip Events Conditions
12:53 AM -9.0 °F - -13.0 °F 83% 29.92 in 10.0 mi Calm Calm - N/A   Scattered Clouds
1:53 AM -6.0 °F - -11.0 °F 79% 29.92 in 10.0 mi Calm Calm - N/A   Overcast
3:53 AM -2.9 °F - -9.0 °F 75% 29.91 in 10.0 mi Calm Calm - N/A   Overcast
4:53 AM -2.9 °F - -8.0 °F 79% 29.90 in 10.0 mi Calm Calm - N/A   Overcast
5:53 AM -2.0 °F - -8.0 °F 76% 29.89 in 10.0 mi Calm Calm - N/A   Overcast
6:53 AM -2.0 °F - -8.0 °F 76% 29.89 in 10.0 mi Calm Calm - N/A   Mostly Cloudy
7:53 AM -4.0 °F - -9.0 °F 79% 29.88 in 10.0 mi Calm Calm - N/A   Mostly Cloudy
8:53 AM -6.0 °F - -11.0 °F 79% 29.88 in 10.0 mi Calm Calm - N/A   Scattered Clouds
9:53 AM -9.9 °F - -14.1 °F 82% 29.89 in 10.0 mi Calm Calm - N/A   Scattered Clouds
10:53 AM -6.0 °F - -11.0 °F 79% 29.88 in 10.0 mi Calm Calm - N/A   Scattered Clouds
11:53 AM -2.9 °F - -8.0 °F 79% 29.86 in 10.0 mi Calm Calm - N/A   Scattered Clouds
12:53 PM -6.0 °F - -9.9 °F 83% 29.85 in 10.0 mi Calm Calm - N/A   Scattered Clouds
1:53 PM -5.1 °F - -9.0 °F 83% 29.84 in 10.0 mi Calm Calm - N/A   Scattered Clouds
2:53 PM -8.0 °F - -11.9 °F 83% 29.82 in 10.0 mi Calm Calm - N/A   Scattered Clouds
3:53 PM -9.0 °F - -14.1 °F 79% 29.82 in 10.0 mi Calm Calm - N/A   Partly Cloudy
4:53 PM -11.0 °F - -16.1 °F 78% 29.81 in 10.0 mi Calm Calm - N/A   Partly Cloudy
5:53 PM -11.9 °F - -16.1 °F 82% 29.79 in 10.0 mi Calm Calm - N/A   Partly Cloudy
6:53 PM -13.0 °F - -18.0 °F 78% 29.77 in 10.0 mi Calm Calm - N/A   Partly Cloudy
7:53 PM -15.0 °F - -20.0 °F 78% 29.77 in 10.0 mi Calm Calm - N/A   Partly Cloudy
8:53 PM -15.0 °F -25.0 °F -20.0 °F 78% 29.76 in 10.0 mi NW 3.5 mph - N/A   Partly Cloudy
9:28 PM -15.0 °F - -20.0 °F 78% 29.55 in 10.0 mi Calm Calm - N/A   Scattered Clouds
9:53 PM -16.1 °F -26.2 °F -20.0 °F 82% 29.77 in 10.0 mi WNW 3.5 mph - N/A   Clear
10:53 PM -11.9 °F -21.5 °F -17.0 °F 78% 29.75 in 10.0 mi NW 3.5 mph - N/A   Overcast
11:53 PM -5.1 °F - -9.9 °F 80% 29.73 in 10.0 mi Calm Calm - N/A   Overcast